Starlink 3640

operational
NORAD ID: 51988 Int'l Des: 2022-025 Owner: SPXS Country: US Constellation: starlink
LEOCIRCULAR

About Starlink 3640

Description loading...

Live Position

Loading 3D Globe...

Upcoming Passes

Altitude History

Altitude vs Time

uPlot chart will show altitude changes over time

Two-Line Element Set

1 51988U 22025AJ 25354.40693730 -.00012698 00000-0 -78221-3 0 9994
2 51988 53.2202 35.0370 0001844 104.2302 255.8895 15.08789927209092
Epoch: Dec 20, 2025 • Age: 11 hours

Current Status

Altitude 555.7 km
Velocity 7.58 km/s
Sub-Earth Point -44.14°S, 135.92°W
Launch Date Mar 9, 2022
Age 3.7 years
Type internet

Technical Details

Classification Payload
Mass 297.00 kg
Dry Mass 275.00 kg
Total Mass 297.00 kg
Length 0.20 m
Diameter 2.80 m
Span 9.00 m
Shape Box + pan
Manufacturer SPXS
Bus Type Starlink
Phase Status In Orbit
Owner/State SPXS/US

Large Constellations

Loading constellations...